sat.trackr.live / text

‹ back to catalog

STARLINK-31350

NORAD 58933 · 2024-027C

PAYLOAD ACTIVE UNKNOWN

§ Identity

Operator
Country
US
Launch date
2024-02-10
Launch site
AFWTR
Launch vehicle
Mass (kg)
RCS (m²)

Purposes: comms

External: N2YO · Heavens-Above · Gunter

§ Orbital elements

Epoch: 2026-05-25T04:35:34.347264Z

Period
94.11 min
Inclination
53.1593°
Eccentricity
0.0001480
Mean motion
15.30186523 rev/d
Perigee alt
474.2 km
Apogee alt
476.3 km
Semi-major
6,853.4 km
B*
1.1028e-5
RAAN
314.0972°
Arg perigee
89.5663°
Mean anomaly
270.5508°
Rev number
12,904

§ Raw data

STARLINK-313501 58933U 24027C   26145.19136976 -.00000033  00000+0  11028-4 0  99952 58933  53.1593 314.0972 0001480  89.5663 270.5508 15.30186523129049

JSON: /api/v1/satellites/58933 · /tle

For live sub-satellite position, see the globe view (requires WebGL).

§ Visibility from observer

Set your observer location to see the next 7 days of passes ≥ 10°. The values pass through the URL so the page stays shareable.

No JS? Fill the form by hand. The geolocation button needs JavaScript.